Location: eljas
(40.1958°N, 6.8661°W)
Time: 10:27:46
(UTC+02:00)

Daily predictions for brighter satellites

Satellite Brightness Start Highest point End
(mag) Time Altitude Azimuth Time Altitude Azimuth Time Altitude Azimuth
Cosmos 1709 Rocket 4.1 20:35:58 10° S 20:42:17 76° E 20:48:40 10° N
Cosmos 1758 Rocket 3.7 20:41:19 10° N 20:45:47 60° E 20:50:12 10° SSE
Cosmos 1943 Rocket 2.4 20:43:58 10° NNW 20:49:34 80° WSW 20:55:10 10° SSE
Cosmos 1726 Rocket 3.5 20:45:31 10° S 20:49:49 66° E 20:54:08 10° NNE
Cosmos 2298 Rocket 4.0 20:46:25 10° NNW 20:51:47 77° ENE 20:57:06 10° SSE
SAR-Lupe-3 4.5 20:49:15 10° NNE 20:52:50 69° ESE 20:56:24 10° S
FALCON 9 R/B 2.1 20:51:01 10° SW 20:53:21 30° SSE 20:57:44 10° E
Meteor 1-24 Rocket 4.4 20:48:35 10° N 20:54:00 35° ENE 20:59:13 10° SE
Cosmos 1340 Rocket 2.8 20:50:20 10° N 20:54:26 83° E 20:58:30 10° S
Cosmos 540 Rocket 4.4 20:50:55 10° SSE 20:55:02 25° E 20:59:10 10° NE
Cosmos 1763 Rocket 3.4 20:51:29 10° S 20:56:33 74° ESE 21:01:43 10° NNE
Cosmos 2084 3.3 20:53:12 10° SSW 20:57:20 90° NE 21:01:15 10° NE
Cosmos 389 Rocket 3.2 20:57:03 10° SSW 21:00:31 58° W 21:03:57 10° N
FREGAT/IRIS 2.8 21:02:29 10° SSE 21:05:24 48° ENE 21:08:20 10° N
Lacrosse 5 4.5 21:02:08 10° WNW 21:05:36 19° WSW 21:09:04 10° SSW
Cosmos 2184 Rocket 4.2 21:06:08 10° SSE 21:12:12 53° E 21:18:21 10° NNE
Cosmos 2228 3.0 21:11:51 10° S 21:16:13 86° E 21:20:34 10° N
HJ-1C 3.6 21:15:45 10° SSE 21:18:58 46° ENE 21:22:13 10° N
USA 234 4.5 21:15:06 10° SSE 21:21:09 40° SW 21:27:16 10° WNW
Thor Agena Rocket 3.7 21:17:47 10° NNE 21:23:03 79° WNW 21:28:13 10° SSW
Cosmos 1656 Rocket 3.6 21:18:40 10° NNW 21:24:21 85° ENE 21:29:54 10° SSE
Resurs 01 Rocket 2.5 21:21:33 16° ESE 21:24:23 30° ENE 21:28:15 10° N
FENGYUN 3A 4.1 21:19:40 10° S 21:24:58 66° W 21:30:20 10° NNW
SJ-6B 2.8 21:21:46 10° SSE 21:25:45 68° ENE 21:29:40 10° N
ATLAS CENTAUR R/B 3.5 21:12:00 10° NW 21:26:42 86° NE 21:30:53 15° SE
Spot 2 Rocket 4.3 21:24:15 16° ESE 21:27:27 31° ENE 21:31:52 10° N
GP-B 3.9 21:24:35 10° NNE 21:28:28 29° E 21:31:04 17° SE
BREEZE-M (TANK) 4.0 21:13:09 10° WNW 21:29:06 81° SW 21:32:19 18° SE
Cosmos 1812 Rocket 4.1 21:25:09 10° SSE 21:29:13 36° E 21:33:19 10° NNE
Cosmos 1953 4.1 21:30:40 16° ENE 21:30:40 16° ENE 21:32:10 10° NE
Cosmos 836 Rocket 4.5 21:26:10 10° S 21:31:20 60° ESE 21:36:32 10° NNE
Cosmos 1356 Rocket 3.4 21:27:30 10° N 21:31:50 85° E 21:36:08 10° S
Cosmos 2327 Rocket 4.4 21:26:31 10° S 21:32:35 70° E 21:38:38 10° NNE
Meteor 1-22 Rocket 4.1 21:29:01 10° S 21:34:44 76° E 21:40:15 10° NNE
Meteor 2-5 Rocket 4.2 21:29:08 10° NNW 21:34:56 67° W 21:40:36 10° S
Cosmos 2058 Rocket 3.9 21:30:44 10° SSW 21:34:59 53° W 21:39:17 10° N
COSMOS 2406 3.1 21:32:22 10° SSW 21:38:03 78° ESE 21:43:49 10° NNE
H-2A R/B 2.9 21:35:24 10° S 21:39:05 70° W 21:42:50 10° NNW
Cosmos 292 Rocket 4.5 21:38:37 10° SSE 21:42:51 31° E 21:47:07 10° NE
Milstar 3 Cent rocket 3.6 21:39:54 10° SSW 21:43:16 17° S 21:44:29 16° SSE
Cosmos 1125 Rocket 3.4 21:47:29 10° NNW 21:52:47 71° ENE 21:56:04 24° SSE
In-Cosmos 22 4.2 21:47:42 10° N 21:53:26 90° ENE 21:59:13 10° S
ATLAS 2AS CENTAUR R/B 4.0 21:47:18 10° NNW 21:54:09 29° NE 21:57:19 22° ENE
Cosmos 372 Rocket 3.9 21:52:58 10° NNW 21:58:13 70° ENE 22:00:49 30° SE
USA 186 4.1 22:01:46 10° N 22:01:46 10° N 22:01:48 10° N
Cosmos 1766 4.0 21:55:50 10° SSW 21:59:40 53° W 22:03:31 10° N
Envisat 3.0 21:57:21 30° SE 21:59:40 58° ENE 22:04:40 10° N
NOSS 3-1 (A) 4.2 21:56:10 10° NW 22:03:54 77° WSW 22:10:51 17° SSE
Cosmos 1544 3.9 22:02:22 10° SSW 22:05:53 49° W 22:09:24 10° N
GEOS 3 Rocket 4.5 22:08:09 32° SSE 22:08:09 32° SSE 22:11:42 10° S
ISS -2.4 22:07:04 10° SW 22:08:55 30° SSW 22:08:55 30° SSW
Cosmos 1758 3.1 22:12:42 75° SE 22:12:57 79° E 22:16:58 10° N
Cosmos 1674 3.7 22:10:57 10° N 22:13:19 35° NNE 22:13:19 35° NNE
Cosmos 1356 3.6 22:11:28 10° NNW 22:14:43 71° NW 22:14:43 71° NW
Cosmos 2154 Rocket 3.9 22:11:08 10° S 22:17:22 88° W 22:23:40 10° N
SJ-11-01 4.4 22:20:28 56° ENE 22:20:28 56° ENE 22:24:50 10° N
Centaur D AC-29 3.4 22:18:23 10° SW 22:24:37 19° SSW 22:25:22 19° S
Cosmos 1939 Rocket 3.7 22:27:05 40° N 22:27:05 40° N 22:29:42 10° N
Cosmos 2278 4.2 22:22:09 10° N 22:27:18 43° NE 22:27:18 43° NE
Cosmos 2341 Rocket 3.8 22:22:59 10° S 22:29:10 82° E 22:35:25 10° N
Cosmos 1900 4.5 22:24:13 10° SW 22:29:18 76° WNW 22:34:29 10° NNE
BREEZE-M DEB (TANK) 3.1 22:28:16 10° WSW 22:37:56 70° NNW 22:38:33 61° NNE
Cosmos 1697 Rocket 3.8 22:45:11 10° N 22:48:57 32° NNE 22:48:57 32° NNE
Cosmos 1980 Rocket 3.9 22:47:06 10° N 22:49:50 21° NNE 22:49:50 21° NNE
Cosmos 1656 4.2 22:46:49 10° NNW 22:51:13 47° NNE 22:51:13 47° NNE
Meteor 2-21 4.3 22:54:06 85° S 22:54:17 89° E 23:00:27 10° N
Cosmos 2218 Rocket 4.5 22:58:07 48° NNE 22:58:07 48° NNE 23:02:32 10° NNE
Cosmos 2285 Rocket 3.9 22:51:33 10° SSW 22:57:58 89° WNW 23:04:28 10° NNE
Resurs 01 Rocket 3.7 22:59:08 19° SW 23:00:51 24° W 23:04:25 10° NW
Cosmos 1953 4.4 23:06:18 26° NW 23:06:18 26° NW 23:09:01 10° NNW
SL-8 Rocket 4.3 23:21:46 60° WNW 23:21:46 60° WNW 23:27:25 10° N
ATLAS 2AS CENTAUR R/B 3.2 23:38:05 10° NW 23:44:46 64° NW 23:44:46 64° NW
H-2A R/B 4.5 23:57:22 16° NNW 23:57:22 16° NNW 23:58:20 10° NNW
